Find Feng Yun 2A

NORAD ID: 24834 Int'l Des: 1997-029 Owner: NSMC Country: CN operational
HEO

当前视图

正在加载3D地球...

About Feng Yun 2A

Feng Yun 2A (NORAD 24834) is a satellite launched Jun 10, 1997 by NSMC of CN. It operates in HEO orbit with a mass of 651.00 kg.

即将过境

Passes for default location (London). Set your location on the main map for personalized predictions.

高度历史

Loading altitude history...

两行轨道根数

1 24834U 97029A 26195.13534836 -.00000210 00000-0 00000+0 0 9997
2 24834 15.6658 5.8952 0104084 238.7679 115.2758 0.96051605103658
Epoch: Jul 14, 2026 • Age: 18 hours

当前状态

高度 36580.3 km
远地点 / 近地点 N/A
速度 3.06 km/s
星下点 -15.11°S, 7.53°E
发射日期 Jun 10, 1997
运行时间 29 years
类型 other

技术详情

分类 Payload
质量 651.00 kg
干质量 600.00 kg
总质量 651.00 kg
长度 3.00 m
直径 2.10 m
跨度 3.00 m
形状 Cyl + Ant
制造商 SISE
平台类型 FY-2
阶段状态 In Orbit
所有者/国家 NSMC/CN

Most Searched